FW8893 Weather Reports


time (UTC)temp
C
wind
direction
speed
KPH
gust
KPH
rain 1hr
cm
rain 24hr
cm
rain mn
cm
humidity
%
barometer
mb
20240614133157 22 269 3.2 3.2 0.00 0.00 0.00 84 1009.6
20240614132655 22 227 1.6 3.2 0.00 0.00 0.00 84 1009.6
20240614132155 22 220 1.6 1.6 0.00 0.00 0.00 83 1009.6
20240614131653 22 167 1.6 3.2 0.00 0.00 0.00 83 1009.3
20240614131151 22 183 1.6 3.2 0.00 0.00 0.00 83 1009.3
20240614130647 22 188 0.0 1.6 0.00 0.00 0.00 82 1009.3
20240614130146 22 237 6.4 11.3 0.00 0.00 0.00 82 1009.3
20240614125645 22 189 4.8 8.0 0.00 0.00 0.00 81 1009.3
20240614125146 22 317 4.8 9.7 0.00 0.00 0.00 81 1009.3
20240614124633 22 234 3.2 4.8 0.00 0.00 0.00 81 1009.3
20240614124131 22 159 1.6 3.2 0.00 0.00 0.00 81 1009.6
20240614123629 21 253 4.8 4.8 0.00 0.00 0.00 83 1009.3
20240614123129 21 228 1.6 3.2 0.00 0.00 0.00 83 1009.3
20240614122625 20 202 0.0 0.0 0.00 0.00 0.00 84 1009.3
20240614122125 20 144 1.6 3.2 0.00 0.00 0.00 84 1009.6
20240614121624 20 255 3.2 3.2 0.00 0.00 0.00 85 1009.6
20240614121123 20 259 3.2 4.8 0.00 0.00 0.00 85 1009.6
20240614120622 20 214 4.8 8.0 0.00 0.00 0.00 85 1009.6
20240614120119 20 227 3.2 4.8 0.00 0.00 0.00 86 1010.1
20240614115618 19 222 4.8 4.8 0.00 0.00 0.00 85 1009.6
20240614115118 19 148 3.2 4.8 0.00 0.00 0.00 85 1009.3
20240614114615 19 239 3.2 11.3 0.00 0.00 0.00 85 1009.3
20240614114115 19 177 1.6 3.2 0.00 0.00 0.00 86 1009.6
20240614113611 19 3 6.4 9.7 0.00 0.00 0.00 86 1009.6
20240614113110 19 281 3.2 4.8 0.00 0.00 0.00 85 1009.6
20240614112606 18 168 1.6 3.2 0.00 0.00 0.00 86 1009.6
20240614112105 18 184 0.0 0.0 0.00 0.00 0.00 86 1009.6
20240614111604 18 256 4.8 8.0 0.00 0.00 0.00 86 1009.6
20240614111102 18 186 3.2 3.2 0.00 0.00 0.00 86 1009.3
20240614110559 18 289 3.2 3.2 0.00 0.00 0.00 86 1009.3
20240614110057 18 359 1.6 3.2 0.00 0.00 0.00 86 1009.6
20240614105554 18 241 4.8 4.8 0.00 0.00 0.00 86 1009.6
20240614105053 18 245 4.8 8.0 0.00 0.00 0.00 86 1009.6
20240614104549 18 120 4.8 8.0 0.00 0.00 0.00 86 1009.3
20240614104049 17 209 3.2 4.8 0.00 0.00 0.00 86 1009.6
20240614103549 17 3 6.4 9.7 0.00 0.00 0.00 86 1009.6
20240614103048 17 83 3.2 4.8 0.00 0.00 0.00 86 1009.6
20240614102547 17 196 4.8 8.0 0.00 0.00 0.00 86 1009.3
20240614102045 17 242 1.6 3.2 0.00 0.00 0.00 86 1009.3
20240614101543 17 106 1.6 1.6 0.00 0.00 0.00 85 1009.3
20240614101040 17 55 0.0 1.6 0.00 0.00 0.00 85 1009.3
20240614100540 17 207 0.0 0.0 0.00 0.00 0.00 85 1009.3
20240614100039 17 218 1.6 1.6 0.00 0.00 0.00 85 1009.6
20240614095538 17 181 3.2 4.8 0.00 0.00 0.00 85 1009.6
20240614095037 17 59 6.4 8.0 0.00 0.00 0.00 85 1009.6
20240614094533 17 214 1.6 4.8 0.00 0.00 0.00 85 1009.3
20240614094032 17 266 4.8 8.0 0.00 0.00 0.00 85 1009.6
20240614093530 17 202 1.6 1.6 0.00 0.00 0.00 84 1009.6
20240614093028 17 224 4.8 4.8 0.00 0.00 0.00 84 1009.6
20240614092526 17 257 3.2 4.8 0.00 0.00 0.00 84 1009.3
20240614092026 17 265 1.6 3.2 0.00 0.00 0.00 83 1009.3
20240614091525 17 200 6.4 9.7 0.00 0.00 0.00 83 1009.6
20240614091024 17 202 0.0 1.6 0.00 0.00 0.00 83 1009.6
20240614090523 17 35 1.6 3.2 0.00 0.00 0.00 83 1009.3
20240614090022 17 231 1.6 3.2 0.00 0.00 0.00 83 1009.6
20240614085515 18 265 3.2 3.2 0.00 0.00 0.00 82 1009.3
20240614085014 18 181 1.6 1.6 0.00 0.00 0.00 81 1009.3
20240614084512 18 205 1.6 1.6 0.00 0.00 0.00 82 1009.3
20240614084011 18 201 1.6 3.2 0.00 0.00 0.00 82 1009.3
20240614083511 18 243 1.6 3.2 0.00 0.00 0.00 81 1009.3
20240614083010 18 181 0.0 1.6 0.00 0.00 0.00 81 1008.9
20240614082508 18 198 0.0 1.6 0.00 0.00 0.00 81 1009.3
20240614082008 18 211 1.6 1.6 0.00 0.00 0.00 81 1009.3
20240614081505 18 187 1.6 1.6 0.00 0.00 0.00 80 1009.3
20240614081005 18 230 1.6 4.8 0.00 0.00 0.00 80 1009.3
20240614080503 18 227 4.8 4.8 0.00 0.00 0.00 80 1008.9
20240614080003 18 283 4.8 8.0 0.00 0.00 0.00 80 1008.9
20240614075502 18 227 4.8 4.8 0.00 0.00 0.00 80 1009.3
20240614075002 18 176 1.6 3.2 0.00 0.00 0.00 79 1009.3
20240614074501 18 232 1.6 3.2 0.00 0.00 0.00 80 1009.3
20240614074001 18 250 6.4 8.0 0.00 0.00 0.00 80 1009.3
20240614073500 18 177 3.2 4.8 0.00 0.00 0.00 80 1009.3
20240614072956 18 206 1.6 1.6 0.00 0.00 0.00 81 1009.3
20240614072455 18 209 4.8 8.0 0.00 0.00 0.00 81 1009.3
20240614071954 18 215 1.6 1.6 0.00 0.00 0.00 82 1009.6
20240614071453 18 210 3.2 3.2 0.00 0.00 0.00 81 1009.6
20240614070952 18 249 4.8 8.0 0.00 0.00 0.00 81 1009.3
20240614070452 18 205 4.8 4.8 0.00 0.00 0.00 82 1009.6
20240614065952 18 210 0.0 0.0 0.00 0.00 0.00 81 1009.3
20240614065451 18 211 0.0 1.6 0.00 0.00 0.00 82 1009.6
20240614064951 18 210 3.2 3.2 0.00 0.00 0.00 81 1009.6
20240614064449 18 187 1.6 1.6 0.00 0.00 0.00 81 1009.6
20240614063949 19 175 0.0 0.0 0.00 0.00 0.00 80 1009.6
20240614063448 19 187 3.2 3.2 0.00 0.00 0.00 80 1009.6
20240614062948 18 193 0.0 0.0 0.00 0.00 0.00 81 1010.1
20240614062447 19 183 0.0 0.0 0.00 0.00 0.00 80 1010.1
20240614061946 19 199 0.0 0.0 0.00 0.00 0.00 80 1010.1
20240614061444 19 224 1.6 1.6 0.00 0.00 0.00 80 1010.4
20240614060942 19 247 4.8 8.0 0.00 0.00 0.00 81 1010.1
20240614060441 19 191 0.0 0.0 0.00 0.00 0.00 81 1010.1
20240614055938 20 204 1.6 1.6 0.00 0.00 0.00 80 1010.4
20240614055437 20 234 1.6 1.6 0.00 0.00 0.00 79 1010.4
20240614054935 20 195 1.6 1.6 0.00 0.00 0.00 79 1010.4
20240614054434 20 218 1.6 1.6 0.00 0.00 0.00 80 1010.4
20240614053933 20 181 0.0 0.0 0.00 0.00 0.00 80 1010.4
20240614053431 20 255 1.6 3.2 0.00 0.00 0.00 80 1010.4
20240614052931 20 308 1.6 3.2 0.00 0.00 0.00 79 1010.7
20240614052429 20 224 3.2 3.2 0.00 0.00 0.00 79 1010.4
20240614051928 20 133 1.6 3.2 0.00 0.00 0.00 79 1010.7
20240614051427 20 175 1.6 3.2 0.00 0.00 0.00 79 1010.7
20240614050925 20 264 3.2 4.8 0.00 0.00 0.00 79 1010.7
20240614050425 20 194 4.8 4.8 0.00 0.00 0.00 79 1010.7
20240614045923 20 173 1.6 1.6 0.00 0.00 0.00 79 1010.7
20240614045422 20 173 1.6 3.2 0.00 0.00 0.00 80 1010.7
20240614044920 20 196 4.8 8.0 0.00 0.00 0.00 81 1010.7
20240614044419 20 215 1.6 1.6 0.00 0.00 0.00 81 1010.7
20240614043917 20 199 1.6 1.6 0.00 0.00 0.00 81 1011.1
20240614043416 20 178 0.0 0.0 0.00 0.00 0.00 81 1011.1
20240614042915 20 216 1.6 3.2 0.00 0.00 0.00 81 1011.4
20240614042414 20 216 0.0 1.6 0.00 0.00 0.00 80 1011.1
20240614041913 20 96 0.0 1.6 0.00 0.00 0.00 80 1011.1
20240614041410 20 218 3.2 3.2 0.00 0.00 0.00 80 1011.4
20240614040908 20 267 3.2 4.8 0.00 0.00 0.00 80 1011.4
20240614040408 20 255 0.0 1.6 0.00 0.00 0.00 80 1011.1
20240614035908 20 199 4.8 8.0 0.00 0.00 0.00 80 1011.4
20240614035407 20 227 4.8 9.7 0.00 0.00 0.00 80 1011.4
20240614034905 20 221 4.8 4.8 0.00 0.00 0.00 80 1011.8
20240614034402 20 189 8.0 11.3 0.00 0.00 0.00 80 1011.8
20240614033901 21 291 3.2 3.2 0.00 0.00 0.00 79 1011.8
20240614033401 21 233 3.2 4.8 0.00 0.00 0.00 79 1012.1
20240614032859 21 164 3.2 4.8 0.00 0.00 0.00 78 1011.8
20240614032357 21 227 4.8 8.0 0.00 0.00 0.00 77 1011.8
20240614031856 21 94 3.2 3.2 0.00 0.00 0.00 78 1011.8
20240614031356 21 251 1.6 3.2 0.00 0.00 0.00 77 1011.8
20240614030854 21 293 4.8 4.8 0.00 0.00 0.00 77 1011.8
20240614030352 21 199 1.6 3.2 0.00 0.00 0.00 78 1011.8
20240614025850 21 272 4.8 4.8 0.00 0.00 0.00 78 1011.8
20240614025349 21 190 4.8 4.8 0.00 0.00 0.00 78 1012.1
20240614024848 21 217 1.6 1.6 0.00 0.00 0.00 80 1012.1
20240614024347 20 95 0.0 1.6 0.00 0.00 0.00 79 1011.4
20240614023845 21 230 3.2 4.8 0.00 0.00 0.00 80 1011.4
20240614023344 20 190 1.6 3.2 0.00 0.00 0.00 79 1011.8
20240614022843 21 170 1.6 1.6 0.00 0.00 0.00 79 1011.4
20240614022342 21 308 1.6 1.6 0.00 0.00 0.00 79 1011.8
20240614021842 21 227 3.2 3.2 0.00 0.00 0.00 78 1011.8
20240614021341 20 283 4.8 4.8 0.00 0.00 0.00 78 1012.1
20240614020839 21 244 4.8 4.8 0.00 0.00 0.00 80 1012.1
20240614020337 20 277 4.8 4.8 0.00 0.00 0.00 78 1012.1
20240614015835 20 292 1.6 1.6 0.00 0.00 0.00 80 1012.1
20240614015334 20 230 3.2 3.2 0.00 0.00 0.00 79 1012.1
20240614014834 21 237 3.2 3.2 0.00 0.00 0.00 78 1012.1
20240614014329 20 13 0.0 3.2 0.00 0.00 0.00 78 1012.1
20240614013828 20 244 3.2 4.8 0.00 0.00 0.00 79 1012.1
20240614013328 20 251 3.2 3.2 0.00 0.00 0.00 79 1012.1
20240614012826 20 249 3.2 3.2 0.00 0.00 0.00 80 1012.1
20240614012323 20 242 1.6 3.2 0.00 0.00 0.00 81 1012.1
20240614011821 20 266 3.2 3.2 0.00 0.00 0.00 82 1012.4
20240614011318 20 235 1.6 3.2 0.00 0.00 0.00 82 1012.1
20240614010818 20 228 1.6 3.2 0.00 0.00 0.00 82 1012.1
20240614010317 20 228 1.6 3.2 0.00 0.00 0.00 82 1012.1
20240614005815 20 230 1.6 1.6 0.00 0.00 0.00 81 1012.4
20240614005313 20 237 1.6 1.6 0.00 0.00 0.00 81 1012.1
20240614004812 20 212 1.6 4.8 0.00 0.00 0.00 81 1012.1
20240614004310 20 217 1.6 1.6 0.00 0.00 0.00 82 1012.4
20240614003808 20 216 0.0 0.0 0.00 0.00 0.00 81 1012.1
20240614003308 20 216 0.0 0.0 0.00 0.00 0.00 81 1012.1
20240614002804 20 216 0.0 1.6 0.00 0.00 0.00 80 1012.1
20240614002302 20 215 0.0 0.0 0.00 0.00 0.00 80 1012.4
20240614001801 20 217 0.0 1.6 0.00 0.00 0.00 79 1012.4
20240614001300 20 216 0.0 1.6 0.00 0.00 0.00 79 1012.1
20240614000758 20 217 0.0 1.6 0.00 0.00 0.00 79 1012.4
20240614000258 21 227 0.0 1.6 0.00 0.00 0.00 78 1012.4
20240613235757 21 236 1.6 1.6 0.00 0.00 0.00 76 1012.4
20240613235256 21 224 1.6 1.6 0.00 0.00 0.00 76 1012.4
20240613234755 21 229 1.6 1.6 0.00 0.00 0.00 77 1012.4
20240613234252 21 234 1.6 3.2 0.00 0.00 0.00 76 1012.1
20240613233751 21 207 1.6 1.6 0.00 0.00 0.00 76 1012.4
20240613233249 21 206 0.0 0.0 0.00 0.00 0.00 77 1012.4
20240613232748 21 206 0.0 0.0 0.00 0.00 0.00 77 1012.4
20240613232246 21 206 0.0 0.0 0.00 0.00 0.00 77 1012.4
20240613231745 21 208 1.6 1.6 0.00 0.00 0.00 77 1012.1
20240613231242 21 211 0.0 0.0 0.00 0.00 0.00 77 1012.4
20240613230741 21 213 0.0 0.0 0.00 0.00 0.00 78 1012.1
20240613230240 21 213 0.0 0.0 0.00 0.00 0.00 76 1012.1
20240613225737 22 220 1.6 1.6 0.00 0.00 0.00 75 1012.4
20240613225235 22 222 0.0 1.6 0.00 0.00 0.00 73 1012.4
20240613224726 22 227 0.0 1.6 0.00 0.00 0.00 73 1012.4
20240613224217 22 228 0.0 1.6 0.00 0.00 0.00 72 1012.4
20240613223714 23 219 0.0 1.6 0.00 0.00 0.00 70 1012.1
20240613223213 23 273 3.2 3.2 0.00 0.00 0.00 68 1012.8
20240613222712 23 230 1.6 3.2 0.00 0.00 0.00 67 1012.4
20240613222211 23 250 3.2 3.2 0.00 0.00 0.00 66 1012.4
20240613221709 23 248 1.6 1.6 0.00 0.00 0.00 66 1012.4
20240613221206 23 233 0.0 0.0 0.00 0.00 0.00 66 1012.4
20240613220706 23 220 0.0 0.0 0.00 0.00 0.00 65 1012.1
20240613220204 23 225 3.2 3.2 0.00 0.00 0.00 64 1012.1
20240613215701 23 220 0.0 1.6 0.00 0.00 0.00 63 1012.1
20240613215159 23 237 0.0 1.6 0.00 0.00 0.00 65 1012.1
20240613214658 23 229 1.6 3.2 0.00 0.00 0.00 63 1012.4
20240613214157 24 275 3.2 4.8 0.00 0.00 0.00 62 1012.1
20240613213655 25 297 3.2 4.8 0.00 0.00 0.00 60 1012.4
20240613213154 25 214 3.2 3.2 0.00 0.00 0.00 57 1012.4
20240613212654 25 245 3.2 3.2 0.00 0.00 0.00 61 1012.4
20240613212153 24 257 3.2 3.2 0.00 0.00 0.00 60 1012.4
20240613211652 25 214 1.6 1.6 0.00 0.00 0.00 59 1012.4
20240613211150 25 259 3.2 4.8 0.00 0.00 0.00 58 1012.4
20240613210649 26 173 3.2 3.2 0.00 0.00 0.00 55 1012.4
20240613210149 26 266 3.2 4.8 0.00 0.00 0.00 56 1012.4
20240613205647 27 349 3.2 3.2 0.00 0.00 0.00 52 1012.4
20240613205147 27 206 1.6 1.6 0.00 0.00 0.00 49 1012.4
20240613204644 27 167 4.8 8.0 0.00 0.00 0.00 50 1012.4
20240613204143 27 229 1.6 3.2 0.00 0.00 0.00 49 1012.4
20240613203642 27 188 3.2 3.2 0.00 0.00 0.00 50 1012.1
20240613203142 27 228 3.2 3.2 0.00 0.00 0.00 47 1012.4
20240613202641 27 210 3.2 4.8 0.00 0.00 0.00 48 1012.1
20240613202140 27 194 1.6 1.6 0.00 0.00 0.00 47 1012.1
20240613201639 27 256 4.8 8.0 0.00 0.00 0.00 47 1012.4
20240613201136 27 141 0.0 1.6 0.00 0.00 0.00 47 1012.4
20240613200635 27 217 3.2 3.2 0.00 0.00 0.00 47 1012.8
20240613200134 27 236 6.4 8.0 0.00 0.00 0.00 47 1012.4
20240613195632 27 175 3.2 4.8 0.00 0.00 0.00 49 1012.4
20240613195131 27 0 3.2 3.2 0.00 0.00 0.00 49 1012.4
20240613194630 26 213 0.0 0.0 0.00 0.00 0.00 50 1012.8
20240613194128 27 127 0.0 1.6 0.00 0.00 0.00 51 1012.8
20240613193625 26 212 4.8 4.8 0.00 0.00 0.00 50 1013.1
20240613193124 26 297 3.2 3.2 0.00 0.00 0.00 47 1012.8
20240613192623 27 127 3.2 3.2 0.00 0.00 0.00 49 1012.8
20240613192122 27 206 3.2 4.8 0.00 0.00 0.00 49 1013.1
20240613191621 27 190 3.2 3.2 0.00 0.00 0.00 49 1013.1
20240613191120 26 233 4.8 4.8 0.00 0.00 0.00 47 1013.1
20240613190617 26 124 1.6 3.2 0.00 0.00 0.00 50 1013.1
20240613190117 27 255 6.4 8.0 0.00 0.00 0.00 49 1013.1
20240613185617 26 180 1.6 1.6 0.00 0.00 0.00 49 1013.1
20240613185116 26 181 0.0 1.6 0.00 0.00 0.00 51 1013.1
20240613184615 26 242 3.2 4.8 0.00 0.00 0.00 50 1013.1
20240613184113 26 249 4.8 8.0 0.00 0.00 0.00 47 1013.4
20240613183612 26 267 4.8 8.0 0.00 0.00 0.00 49 1013.1
20240613183111 26 138 1.6 1.6 0.00 0.00 0.00 47 1013.4
20240613182610 26 182 1.6 3.2 0.00 0.00 0.00 50 1013.1
20240613182109 25 186 8.0 9.7 0.00 0.00 0.00 48 1013.4
20240613181608 26 51 9.7 12.9 0.00 0.00 0.00 49 1013.1
20240613181107 26 102 3.2 3.2 0.00 0.00 0.00 50 1013.1
20240613180605 26 156 1.6 1.6 0.00 0.00 0.00 50 1013.4
20240613180105 26 187 1.6 1.6 0.00 0.00 0.00 47 1013.4
20240613175604 26 151 3.2 4.8 0.00 0.00 0.00 44 1013.4
20240613175102 26 179 1.6 3.2 0.00 0.00 0.00 46 1013.4
20240613174601 26 249 1.6 3.2 0.00 0.00 0.00 47 1013.8
20240613174100 25 195 1.6 1.6 0.00 0.00 0.00 47 1013.8
20240613173559 25 205 6.4 11.3 0.00 0.00 0.00 49 1013.8
20240613173057 25 223 1.6 3.2 0.00 0.00 0.00 53 1013.4
20240613172556 25 251 0.0 1.6 0.00 0.00 0.00 48 1013.4
20240613172055 25 350 4.8 4.8 0.00 0.00 0.00 49 1013.8
20240613171554 25 216 1.6 1.6 0.00 0.00 0.00 51 1013.8
20240613171053 25 27 1.6 1.6 0.00 0.00 0.00 48 1013.4
20240613170551 25 81 4.8 4.8 0.00 0.00 0.00 49 1013.8
20240613170050 25 359 3.2 4.8 0.00 0.00 0.00 48 1013.8
20240613165549 26 194 1.6 3.2 0.00 0.00 0.00 49 1013.8
20240613165048 26 84 1.6 1.6 0.00 0.00 0.00 49 1013.8
20240613164547 25 189 1.6 1.6 0.00 0.00 0.00 50 1014.1
20240613164047 25 308 4.8 4.8 0.00 0.00 0.00 49 1014.1
20240613163545 25 257 3.2 3.2 0.00 0.00 0.00 49 1014.1
20240613163045 25 187 1.6 1.6 0.00 0.00 0.00 51 1014.1
20240613162538 25 215 3.2 4.8 0.00 0.00 0.00 48 1014.1
20240613162038 25 181 1.6 1.6 0.00 0.00 0.00 51 1014.5
20240613161537 25 41 4.8 8.0 0.00 0.00 0.00 49 1014.1
20240613161036 25 171 0.0 1.6 0.00 0.00 0.00 50 1014.5
20240613160532 25 219 0.0 1.6 0.00 0.00 0.00 51 1014.5
20240613160031 25 186 1.6 1.6 0.00 0.00 0.00 51 1014.5
20240613155530 25 212 0.0 0.0 0.00 0.00 0.00 52 1014.5
20240613155029 23 170 1.6 3.2 0.00 0.00 0.00 55 1014.5
20240613154526 25 261 3.2 3.2 0.00 0.00 0.00 53 1014.5
20240613154023 23 208 0.0 1.6 0.00 0.00 0.00 53 1014.5
20240613153522 22 187 1.6 1.6 0.00 0.00 0.00 53 1014.5
20240613153022 23 201 1.6 1.6 0.00 0.00 0.00 56 1014.1
20240613152519 23 169 3.2 8.0 0.00 0.00 0.00 54 1014.5
20240613152019 23 211 0.0 1.6 0.00 0.00 0.00 61 1014.5
20240613151518 23 192 3.2 3.2 0.00 0.00 0.00 61 1014.5
20240613151016 22 220 1.6 1.6 0.00 0.00 0.00 63 1014.5
20240613150514 23 277 1.6 3.2 0.00 0.00 0.00 61 1014.5
20240613150014 23 164 4.8 8.0 0.00 0.00 0.00 64 1014.5
20240613145513 23 202 0.0 0.0 0.00 0.00 0.00 60 1014.8
20240613145012 22 238 1.6 3.2 0.00 0.00 0.00 60 1014.5
20240613144512 22 258 3.2 4.8 0.00 0.00 0.00 62 1014.8
20240613144011 22 353 4.8 8.0 0.00 0.00 0.00 63 1014.8
20240613143510 22 358 9.7 11.3 0.00 0.00 0.00 64 1014.5
20240613143009 22 92 4.8 4.8 0.00 0.00 0.00 63 1014.5
20240613142505 22 276 1.6 1.6 0.00 0.00 0.00 65 1014.5
20240613142005 23 33 4.8 4.8 0.00 0.00 0.00 62 1014.5
20240613141503 23 215 3.2 3.2 0.00 0.00 0.00 66 1014.5
20240613141001 23 162 3.2 3.2 0.00 0.00 0.00 62 1014.5
20240613140500 22 204 1.6 1.6 0.00 0.00 0.00 64 1014.5
20240613135959 22 234 0.0 1.6 0.00 0.00 0.00 67 1014.5
20240613135458 22 62 4.8 8.0 0.00 0.00 0.00 68 1014.5
20240613134957 21 204 0.0 1.6 0.00 0.00 0.00 71 1014.8
20240613134456 21 38 3.2 3.2 0.00 0.00 0.00 69 1014.8
20240613133955 21 200 6.4 9.7 0.00 0.00 0.00 68 1014.5